Change the Weather History Date:

Sunday, March 31, 2013

  Actual Average Record
Temperature  
Mean Temperature 78 °F -  
Max Temperature 83 °F 83 °F 86 °F (1999)
Min Temperature 74 °F 74 °F 71 °F (1998)
Cooling Degree Days 14    
Growing Degree Days 28 (Base 50)    
Moisture  
Dew Point 70 °F    
Average Humidity 74    
Maximum Humidity 89    
Minimum Humidity 61    
Precipitation  
Precipitation 0.02 in 0.09 in - ()
Sea Level Pressure  
Sea Level Pressure 30.09 in    
Wind  
Wind Speed 12 mph ()    
Max Wind Speed 16 mph    
Max Gust Speed -    
Visibility 7.8 miles    
Events Rain    
Averages and records for this station are not official NWS values.
T = Trace of Precipitation, MM = Missing Value Source: Averaged Metar Reports

Daily Weather History Graph

Daily Weather History Graph

Search for Another Location

Airport or City:

Trip Planner

Search our weather history database for the weather conditions in past years. The results will help you decide how hot, cold, wet, or windy it might be!

Date:

Astronomy

Mar. 31, 2013 Rise Set
Actual Time 6:07 AM AST 6:25 PM AST
Civil Twilight 5:45 AM AST 6:47 PM AST
Nautical Twilight 5:20 AM AST 7:13 PM AST
Astronomical Twilight 4:54 AM AST 7:38 PM AST
Moon 10:54 PM AST (3/31) 9:26 AM AST (3/31)
Length of Visible Light 13h 02m
Length of Day
12h 18m
Waning Gibbous, 78% of the Moon is Illuminated
Mar 31
Waning Gibbous
Apr 3
Last Quarter
Apr 10
New
Apr 18
First Quarter
Apr 25
Full

Hourly Weather History & Observations

Time (AST) Temp. Heat Index Dew Point Humidity Pressure Visibility Wind Dir Wind Speed Gust Speed Precip Events Conditions
12:00 AM 75.2 °F - 69.8 °F 83% 30.12 in 6.2 mi ENE 12.7 mph - N/A   Scattered Clouds
1:00 AM 75.2 °F - 69.8 °F 83% 30.09 in 6.2 mi East 13.8 mph - N/A   Partly Cloudy
2:00 AM 76 °F - 71 °F 79% 30.09 in 16 mi ENE 13.8 mph - - Rain Light Rain Showers
2:00 AM 75.2 °F - 71.6 °F 89% 30.06 in 6.2 mi NE 12.7 mph - N/A Rain Light Rain Showers
3:00 AM 75.2 °F - 71.6 °F 89% 30.06 in 6.2 mi East 8.1 mph - N/A Rain Light Rain Showers
4:00 AM 77.0 °F - 69.8 °F 78% 30.06 in 6.2 mi East 12.7 mph - N/A Rain Light Rain Showers
5:00 AM 77 °F - 70 °F 73% 30.13 in 11 mi ESE 11.5 mph - - Rain Light Rain
5:00 AM 77.0 °F - 71.6 °F 83% 30.06 in 6.2 mi East 16.1 mph - N/A   Mostly Cloudy
6:00 AM 77.0 °F - 69.8 °F 78% 30.09 in 6.2 mi East 13.8 mph - N/A   Mostly Cloudy
7:00 AM 77.0 °F - 69.8 °F 78% 30.09 in 6.2 mi East 12.7 mph - N/A Rain Light Rain
7:18 AM 77.0 °F - 71.6 °F 83% 30.09 in 6.2 mi East 13.8 mph - N/A Rain Light Rain Showers
8:00 AM 77 °F - 70 °F 73% 30.13 in 11 mi ESE 11.5 mph - - Rain Light Rain
8:00 AM 77.0 °F - 69.8 °F 78% 30.12 in 6.2 mi East 10.4 mph - N/A Rain Light Rain
9:00 AM 78.8 °F - 69.8 °F 74% 30.12 in 6.2 mi East 15.0 mph - N/A   Scattered Clouds
10:00 AM 80.6 °F 84.6 °F 71.6 °F 74% 30.12 in 6.2 mi East 15.0 mph - N/A   Scattered Clouds
11:00 AM 81 °F - 71 °F 66% 30.14 in 16 mi ESE 15.0 mph - - Rain Light Rain Showers
11:00 AM 80.6 °F 84.6 °F 71.6 °F 74% 30.12 in 6.2 mi East 13.8 mph - N/A Rain Light Rain Showers
12:00 PM 82.4 °F 87.2 °F 71.6 °F 70% 30.09 in 6.2 mi East 12.7 mph - N/A Rain Light Rain Showers
1:00 PM 80.6 °F 84.6 °F 71.6 °F 74% 30.09 in 6.2 mi ESE 12.7 mph - N/A   Mostly Cloudy
2:00 PM 82 °F - 71 °F 61% 30.08 in 16 mi ESE 16.1 mph - -   Partly Cloudy
2:00 PM 82.4 °F 87.2 °F 71.6 °F 70% 30.06 in 6.2 mi ESE 16.1 mph - N/A   Scattered Clouds
3:00 PM 82.4 °F 86.3 °F 69.8 °F 66% 30.06 in 6.2 mi ESE 15.0 mph - N/A   Scattered Clouds
4:00 PM 82.4 °F 86.3 °F 69.8 °F 66% 30.06 in 6.2 mi ESE 16.1 mph - N/A   Mostly Cloudy
5:00 PM 81 °F - 70 °F 62% 30.08 in 16 mi ESE 11.5 mph - -   Partly Cloudy
5:00 PM 82.4 °F 86.3 °F 69.8 °F 66% 30.06 in 6.2 mi ESE 11.5 mph - N/A   Scattered Clouds
6:00 PM 80.6 °F 83.9 °F 69.8 °F 70% 30.06 in 6.2 mi East 12.7 mph - N/A   Scattered Clouds
7:00 PM 78.8 °F - 69.8 °F 74% 30.09 in 6.2 mi ESE 16.1 mph - N/A   Scattered Clouds
8:00 PM 79 °F - 70 °F 68% 30.12 in 22 mi East 12.7 mph - - Rain Light Rain Showers
8:00 PM 78.8 °F - 69.8 °F 74% 30.09 in 6.2 mi East 12.7 mph - N/A Rain Light Rain Showers
9:00 PM 78.8 °F - 69.8 °F 74% 30.12 in 6.2 mi East 11.5 mph - N/A Rain Light Rain Showers
10:00 PM 78.8 °F - 69.8 °F 74% 30.12 in 6.2 mi East 13.8 mph - N/A   Scattered Clouds
11:00 PM 78 °F - 69 °F 66% 30.13 in 22 mi ESE 9.2 mph - -   Partly Cloudy
11:00 PM 78.8 °F - 68.0 °F 69% 30.12 in 6.2 mi East 9.2 mph - N/A   Partly Cloudy